Queretaro Airport,

1:47 PM CDT on July 26, 2017 (GMT -0500)
Queretaro Airport

Weather History for MMQT - April, 2013

Change the Weather History Date:

Tuesday, April 30, 2013

  Actual Average Record
Temperature  
Mean Temperature 67 °F -  
Max Temperature 84 °F 82 °F 93 °F (2012)
Min Temperature 50 °F 55 °F 44 °F (2015)
Cooling Degree Days 2    
Growing Degree Days 17 (Base 50)    
Moisture  
Dew Point 32 °F    
Average Humidity 29    
Maximum Humidity 71    
Minimum Humidity 4    
Precipitation  
Precipitation 0.00 in - - ()
Sea Level Pressure  
Sea Level Pressure 29.98 in    
Wind  
Wind Speed 5 mph ()    
Max Wind Speed 22 mph    
Max Gust Speed -    
Visibility 7.1 miles    
Events      
Averages and records for this station are not official NWS values.
T = Trace of Precipitation, MM = Missing Value Source: Averaged Metar Reports

Daily Weather History Graph

Daily Weather History Graph

Search for Another Location

Airport or City:

Trip Planner

Search our weather history database for the weather conditions in past years. The results will help you decide how hot, cold, wet, or windy it might be!

Date:

Astronomy

Apr. 30, 2013 Rise Set
Actual Time 7:11 AM CDT 8:04 PM CDT
Civil Twilight 6:48 AM CDT 8:28 PM CDT
Nautical Twilight 6:20 AM CDT 8:55 PM CDT
Astronomical Twilight 5:53 AM CDT 9:23 PM CDT
Moon 12:20 AM CDT (4/30) 11:49 AM CDT (4/30)
Length of Visible Light 13h 39m
Length of Day
12h 53m
Waning Gibbous, 70% of the Moon is Illuminated
Apr 30
Waning Gibbous
May 2
Last Quarter
May 9
New
May 17
First Quarter
May 24
Full

Hourly Weather History & Observations

Time (CDT) Temp. Dew Point Humidity Pressure Visibility Wind Dir Wind Speed Gust Speed Precip Events Conditions
12:35 AM 71 °F 28 °F 11% 29.48 in 6 mi West 2.2 mph - -   Scattered Clouds
12:45 AM 66.2 °F 39.2 °F 37% 30.09 in 7.0 mi NNE 5.8 mph - N/A   Scattered Clouds
1:45 AM 60.8 °F 41.0 °F 48% 30.10 in 7.0 mi West 3.5 mph - N/A   Scattered Clouds
2:45 AM 59.0 °F 42.8 °F 55% 30.10 in 7.0 mi Calm Calm - N/A   Scattered Clouds
3:35 AM 67 °F 31 °F 16% 29.58 in 6 mi West 2.2 mph - -   Scattered Clouds
3:48 AM 55.4 °F 42.8 °F 63% 30.10 in 7.0 mi West 3.5 mph - N/A   Mostly Cloudy
4:45 AM 51.8 °F 42.8 °F 71% 30.10 in 6.0 mi Calm Calm - N/A   Mostly Cloudy
5:45 AM 51.8 °F 42.8 °F 71% 30.10 in 6.0 mi Calm Calm - N/A   Mostly Cloudy
6:45 AM 61 °F 34 °F 24% 29.63 in 3 mi East 2.2 mph - -   Mostly Cloudy
6:45 AM 50.0 °F 37.4 °F 62% 30.10 in 6.0 mi Calm Calm - N/A   Scattered Clouds
7:45 AM 50.0 °F 37.4 °F 62% 30.11 in 6.0 mi Calm Calm - N/A   Mostly Cloudy
8:45 AM 60.8 °F 33.8 °F 36% 30.13 in 6.0 mi Calm Calm - N/A   Mostly Cloudy
9:45 AM 68.0 °F 32.0 °F 26% 30.14 in 5.0 mi WNW 6.9 mph - N/A   Mostly Cloudy
9:50 AM 68 °F 45 °F 32% 29.70 in 16 mi West 13.4 mph - -   Mostly Cloudy
10:40 AM 73.4 °F 30.2 °F 20% 30.15 in 5.0 mi West 15.0 mph - N/A   Mostly Cloudy
11:45 AM 75.2 °F 30.2 °F 19% 30.15 in 5.0 mi WSW 21.9 mph - N/A   Overcast
12:45 PM 77.0 °F 28.4 °F 17% 30.16 in 5.0 mi West 11.5 mph - N/A   Overcast
12:54 PM 78 °F 35 °F 12% 29.68 in 12 mi West 6.7 mph - -   Mostly Cloudy
1:45 PM 77.0 °F 28.4 °F 17% 30.15 in 5.0 mi West 9.2 mph - N/A   Mostly Cloudy
2:45 PM 80.6 °F 28.4 °F 15% 30.14 in 6.0 mi West 9.2 mph - N/A   Mostly Cloudy
3:45 PM 80.6 °F 28.4 °F 15% 30.10 in 6.0 mi WNW 11.5 mph - N/A   Mostly Cloudy
3:52 PM 84 °F 25 °F 5% 29.58 in 12 mi WNW 6.7 mph - -   Mostly Cloudy
4:45 PM 82.4 °F 26.6 °F 13% 30.08 in 6.0 mi West 11.5 mph - N/A   Mostly Cloudy
5:45 PM 82.4 °F 26.6 °F 13% 30.05 in 6.0 mi West 11.5 mph - N/A   Mostly Cloudy
6:45 PM 82 °F 9 °F 4% 29.52 in 12 mi SW 8.9 mph - -   Mostly Cloudy
6:45 PM 80.6 °F 26.6 °F 14% 30.07 in 7.0 mi WSW 13.8 mph - N/A   Mostly Cloudy
7:45 PM 77.0 °F 26.6 °F 16% 30.05 in 7.0 mi WSW 9.2 mph - N/A   Mostly Cloudy
8:45 PM 71.6 °F 32.0 °F 23% 30.06 in 7.0 mi WSW 6.9 mph - N/A   Mostly Cloudy
9:45 PM 66.2 °F 37.4 °F 35% 30.10 in 7.0 mi West 9.2 mph - N/A   Mostly Cloudy
9:50 PM 73 °F 7 °F 4% 29.50 in 12 mi SW 6.7 mph - -   Partly Cloudy
10:45 PM 71.6 °F 37.4 °F 29% 30.12 in 7.0 mi West 9.2 mph - N/A   Mostly Cloudy
11:45 PM 68.0 °F 41.0 °F 37% 30.10 in 7.0 mi NW 6.9 mph - N/A   Scattered Clouds